Weather History for KENL - October, 2011

Change the Weather History Date:

Saturday, October 29, 2011

  Actual Average (KSLO) Record (KSLO)
Temperature  
Mean Temperature 47 °F -  
Max Temperature 59 °F 63 °F 83 °F (1971)
Min Temperature 35 °F 41 °F 23 °F (1976)
Degree Days  
Heating Degree Days 18    
Moisture  
Dew Point 29 °F    
Average Humidity 57    
Maximum Humidity 87    
Minimum Humidity 20    
Precipitation  
Precipitation 0.00 in - - ()
Sea Level Pressure  
Sea Level Pressure 30.13 in    
Wind  
Wind Speed 5 mph (West)    
Max Wind Speed 15 mph    
Max Gust Speed 22 mph    
Visibility 10 miles    
Events      
Averages and records for this station are not official NWS values.
T = Trace of Precipitation, MM = Missing Value Source: NWS Daily Summary

Daily Weather History Graph

Daily Weather History Graph

Search for Another Location

Airport or City:

Trip Planner

Search our weather history database for the weather conditions in past years. The results will help you decide how hot, cold, wet, or windy it might be!

Date:

Astronomy

Oct. 29, 2011 Rise Set
Actual Time 7:19 AM CDT 6:00 PM CDT
Civil Twilight 6:52 AM CDT 6:27 PM CDT
Nautical Twilight 6:20 AM CDT 6:58 PM CDT
Astronomical Twilight 5:50 AM CDT 7:29 PM CDT
Moon 10:38 AM CDT (10/29) 8:25 PM CDT (10/29)
Length of Visible Light 11h 35m
Length of Day
10h 40m
Waxing Crescent, 12% of the Moon is Illuminated
Oct 29
Waxing Crescent
Nov 2
First Quarter
Nov 10
Full
Nov 18
Last Quarter
Nov 25
New

Hourly Weather History & Observations

Time (CDT) Temp. Windchill Dew Point Humidity Pressure Visibility Wind Dir Wind Speed Gust Speed Precip Events Conditions
12:15 AM 44.6 °F 40.7 °F 32.0 °F 61% 30.13 in 10.0 mi SW 6.9 mph - N/A   Mostly Cloudy
12:35 AM 44.6 °F 41.4 °F 33.8 °F 66% 30.13 in 10.0 mi WSW 5.8 mph - N/A   Mostly Cloudy
12:55 AM 44.6 °F 42.2 °F 33.8 °F 66% 30.13 in 10.0 mi WSW 4.6 mph - N/A   Scattered Clouds
1:15 AM 42.8 °F - 32.0 °F 66% 30.12 in 10.0 mi Calm Calm - N/A   Scattered Clouds
1:35 AM 41.0 °F - 33.8 °F 76% 30.11 in 10.0 mi Calm Calm - N/A   Clear
1:55 AM 41.0 °F - 33.8 °F 76% 30.11 in 10.0 mi Calm Calm - N/A   Clear
2:15 AM 39.2 °F - 32.0 °F 75% 30.11 in 10.0 mi Calm Calm - N/A   Clear
2:35 AM 39.2 °F 35.9 °F 32.0 °F 75% 30.11 in 10.0 mi WSW 4.6 mph - N/A   Clear
2:55 AM 39.2 °F 35.9 °F 32.0 °F 75% 30.11 in 10.0 mi SW 4.6 mph - N/A   Clear
3:15 AM 39.2 °F 34.2 °F 32.0 °F 75% 30.10 in 10.0 mi SW 6.9 mph - N/A   Clear
3:35 AM 41.0 °F 37.1 °F 32.0 °F 70% 30.10 in 10.0 mi SW 5.8 mph - N/A   Clear
3:55 AM 39.2 °F 35.0 °F 30.2 °F 70% 30.10 in 10.0 mi SW 5.8 mph - N/A   Clear
4:15 AM 39.2 °F 35.0 °F 30.2 °F 70% 30.10 in 10.0 mi WSW 5.8 mph - N/A   Clear
4:35 AM 39.2 °F 35.9 °F 30.2 °F 70% 30.10 in 10.0 mi SW 4.6 mph - N/A   Clear
4:55 AM 37.4 °F 33.8 °F 30.2 °F 75% 30.09 in 10.0 mi WSW 4.6 mph - N/A   Clear
5:15 AM 35.6 °F 32.8 °F 30.2 °F 81% 30.10 in 10.0 mi WSW 3.5 mph - N/A   Clear
5:35 AM 35.6 °F 32.8 °F 30.2 °F 81% 30.10 in 10.0 mi WSW 3.5 mph - N/A   Clear
5:55 AM 35.6 °F 31.7 °F 30.2 °F 81% 30.11 in 10.0 mi WSW 4.6 mph - N/A   Clear
6:15 AM 37.4 °F 32.8 °F 32.0 °F 81% 30.11 in 10.0 mi WSW 5.8 mph - N/A   Clear
6:35 AM 37.4 °F 32.8 °F 32.0 °F 81% 30.11 in 10.0 mi WSW 5.8 mph - N/A   Clear
6:55 AM 35.6 °F - 32.0 °F 87% 30.11 in 10.0 mi Calm Calm - N/A   Clear
7:15 AM 35.6 °F 31.7 °F 30.2 °F 81% 30.12 in 10.0 mi WSW 4.6 mph - N/A   Clear
7:35 AM 35.6 °F 32.8 °F 32.0 °F 87% 30.13 in 10.0 mi West 3.5 mph - N/A   Clear
7:55 AM 37.4 °F - 32.0 °F 81% 30.14 in 10.0 mi Calm Calm - N/A   Clear
8:15 AM 37.4 °F - 32.0 °F 81% 30.14 in 10.0 mi Calm Calm - N/A   Clear
8:35 AM 41.0 °F - 33.8 °F 76% 30.15 in 10.0 mi Calm Calm - N/A   Clear
8:55 AM 42.8 °F - 33.8 °F 70% 30.16 in 10.0 mi Calm Calm - N/A   Clear
9:15 AM 44.6 °F 41.4 °F 33.8 °F 66% 30.16 in 10.0 mi WSW 5.8 mph - N/A   Clear
9:35 AM 46.4 °F 44.3 °F 33.8 °F 62% 30.17 in 10.0 mi West 4.6 mph - N/A   Clear
10:15 AM 48.2 °F - 33.8 °F 58% 30.17 in 10.0 mi WSW 5.8 mph - N/A   Clear
10:35 AM 51.8 °F - 32.0 °F 47% 30.18 in 10.0 mi West 10.4 mph - N/A   Clear
10:55 AM 53.6 °F - 30.2 °F 41% 30.18 in 10.0 mi West 10.4 mph - N/A   Clear
11:15 AM 55.4 °F - 30.2 °F 38% 30.18 in 10.0 mi West 11.5 mph 16.1 mph N/A   Clear
11:35 AM 55.4 °F - 26.6 °F 33% 30.18 in 10.0 mi WNW 12.7 mph 16.1 mph N/A   Clear
11:55 AM 57.2 °F - 24.8 °F 29% 30.17 in 10.0 mi West 15.0 mph 18.4 mph N/A   Clear
12:15 PM 57.2 °F - 24.8 °F 29% 30.16 in 10.0 mi West 11.5 mph 17.3 mph N/A   Clear
12:35 PM 59.0 °F - 24.8 °F 27% 30.16 in 10.0 mi West 11.5 mph 17.3 mph N/A   Clear
12:55 PM 59.0 °F - 21.2 °F 23% 30.16 in 10.0 mi WNW 12.7 mph - N/A   Clear
1:15 PM 59.0 °F - 23.0 °F 25% 30.15 in 10.0 mi West 9.2 mph 18.4 mph N/A   Clear
1:35 PM 59.0 °F - 17.6 °F 20% 30.14 in 10.0 mi WNW 12.7 mph 21.9 mph N/A   Clear
1:55 PM 59.0 °F - 19.4 °F 22% 30.14 in 10.0 mi NW 13.8 mph 18.4 mph N/A   Clear
2:15 PM 59.0 °F - 19.4 °F 22% 30.13 in 10.0 mi WNW 13.8 mph 17.3 mph N/A   Clear
2:55 PM 59.0 °F - 21.2 °F 23% 30.12 in 10.0 mi WNW 11.5 mph 17.3 mph N/A   Clear
3:15 PM 59.0 °F - 19.4 °F 22% 30.12 in 10.0 mi WNW 10.4 mph - N/A   Clear
3:35 PM 59.0 °F - 21.2 °F 23% 30.11 in 10.0 mi NW 3.5 mph - N/A   Clear
3:55 PM 59.0 °F - 21.2 °F 23% 30.11 in 10.0 mi WNW 10.4 mph - N/A   Clear
4:15 PM 59.0 °F - 19.4 °F 22% 30.11 in 10.0 mi West 8.1 mph - N/A   Clear
4:35 PM 59.0 °F - 21.2 °F 23% 30.11 in 10.0 mi West 4.6 mph - N/A   Clear
4:55 PM 59.0 °F - 21.2 °F 23% 30.11 in 10.0 mi Calm Calm - N/A   Clear
5:15 PM 59.0 °F - 21.2 °F 23% 30.11 in 10.0 mi Calm Calm - N/A   Clear
5:35 PM 57.2 °F - 21.2 °F 25% 30.11 in 10.0 mi Calm Calm - N/A   Clear
5:55 PM 53.6 °F - 24.8 °F 33% 30.11 in 10.0 mi Calm Calm - N/A   Clear
6:15 PM 50.0 °F - 30.2 °F 47% 30.12 in 10.0 mi Calm Calm - N/A   Clear
6:35 PM 46.4 °F - 32.0 °F 57% 30.12 in 10.0 mi Calm Calm - N/A   Clear
6:55 PM 44.6 °F - 32.0 °F 61% 30.13 in 10.0 mi Calm Calm - N/A   Clear
7:15 PM 42.8 °F - 32.0 °F 66% 30.13 in 10.0 mi Calm Calm - N/A   Clear
7:35 PM 42.8 °F - 30.2 °F 61% 30.13 in 10.0 mi Calm Calm - N/A   Clear
7:55 PM 41.0 °F - 33.8 °F 76% 30.13 in 10.0 mi Calm Calm - N/A   Clear
8:15 PM 41.0 °F - 32.0 °F 70% 30.13 in 10.0 mi Calm Calm - N/A   Clear
8:35 PM 39.2 °F - 32.0 °F 75% 30.13 in 10.0 mi Calm Calm - N/A   Clear
8:55 PM 39.2 °F - 32.0 °F 75% 30.13 in 10.0 mi Calm Calm - N/A   Clear
9:15 PM 39.2 °F - 32.0 °F 75% 30.13 in 10.0 mi Calm Calm - N/A   Clear
9:35 PM 39.2 °F - 33.8 °F 81% 30.13 in 10.0 mi Calm Calm - N/A   Clear
9:55 PM 37.4 °F - 32.0 °F 81% 30.14 in 10.0 mi Calm Calm - N/A   Clear
10:15 PM 37.4 °F - 32.0 °F 81% 30.13 in 10.0 mi Calm Calm - N/A   Clear
10:35 PM 37.4 °F - 32.0 °F 81% 30.13 in 10.0 mi Calm Calm - N/A   Clear
10:55 PM 37.4 °F - 32.0 °F 81% 30.13 in 10.0 mi Calm Calm - N/A   Clear
11:15 PM 37.4 °F - 30.2 °F 75% 30.13 in 10.0 mi Calm Calm - N/A   Clear
11:35 PM 39.2 °F - 30.2 °F 70% 30.13 in 10.0 mi Calm Calm - N/A   Clear
11:55 PM 37.4 °F - 30.2 °F 75% 30.13 in 10.0 mi Calm Calm - N/A   Clear